sat.trackr.live / text

‹ back to catalog

STARLINK-11153 [DTC]

NORAD 60067 · 2024-113J

PAYLOAD ACTIVE UNKNOWN

§ Identity

Operator
Country
US
Launch date
2024-06-19
Launch site
AFWTR
Launch vehicle
Mass (kg)
RCS (m²)

Purposes: comms

External: N2YO · Heavens-Above · Gunter

§ Orbital elements

Epoch: 2026-05-25T01:56:06.546048Z

Period
91.74 min
Inclination
53.1597°
Eccentricity
0.0001007
Mean motion
15.69732311 rev/d
Perigee alt
359.0 km
Apogee alt
360.3 km
Semi-major
6,737.8 km
B*
-2.8407e-5
RAAN
175.0428°
Arg perigee
67.2460°
Mean anomaly
292.8664°
Rev number
11,155

§ Raw data

STARLINK-11153 [DTC]1 60067U 24113J   26145.08063132 -.00004031  00000+0 -28407-4 0  99952 60067  53.1597 175.0428 0001007  67.2460 292.8664 15.69732311111559

JSON: /api/v1/satellites/60067 · /tle

For live sub-satellite position, see the globe view (requires WebGL).

§ Visibility from observer

Set your observer location to see the next 7 days of passes ≥ 10°. The values pass through the URL so the page stays shareable.

No JS? Fill the form by hand. The geolocation button needs JavaScript.